Starlink 33824

operational
NORAD ID: 63766 Int'l Des: 2025-089 Owner: SPXS Country: US Constellation: starlink
LEOCIRCULAR

Über Starlink 33824

Beschreibung wird geladen...

Live-Position

3D-Globus wird geladen...

Nächste Überflüge

Höhenverlauf

Altitude vs Time

uPlot chart will show altitude changes over time

Zweizeiliger Elementsatz

1 63766U 25089R 25353.46330962 .00013842 00000-0 51140-3 0 9995
2 63766 43.0002 138.6907 0001060 261.9825 98.0906 15.27592628 36685
Epoch: 19. Dez. 2025 • Age: 25 hours

Aktueller Status

Höhe 492.0 km
Geschwindigkeit 7.62 km/s
Subsatellitenpunkt -34.05°S, 177.59°E
Startdatum 29. Apr. 2025
Alter 0.6 years
Typ internet

Technische Details

Klassifizierung Payload
Masse 575.00 kg
Trockenmasse 530.00 kg
Gesamtmasse 575.00 kg
Länge 0.30 m
Durchmesser 4.10 m
Spannweite 29.00 m
Form Box + pan
Hersteller SPXS
Bus-Typ Starlink V2MO
Phasenstatus In Orbit
Besitzer/Staat SPXS/US

Große Konstellationen

Loading constellations...